Flag for Austria Weather past 2 weeks in Scheibbs, Lower Austria, Austria

Now
61 °F

Cool.


Feels Like: 61 °F
Forecast: 57 / 70 °F
Wind: 2 mph from Southwest

Location: Amstetten

Current Time: Sep 20, 2014 at 2:10:57 AM

Latest Report: Sep 20, 2014 at 1:00 AM


Visibility: N/A

Pressure: 30.03 "Hg

Humidity: 95%

Dew point: 60 °F

Location of ScheibbsLocation

Historic Weather in Scheibbs — Graph

°F

Scheibbs temperature yesterday

Maximum temperature yesterday: 71 °F (at 2:00 PM)
Minimum temperature yesterday: 52 °F (at 5:00 AM)
Average temperature yesterday: 63 °F

Past Weeks' High & Low Weather Summary

 TemperatureHumidityPressure
High79 °F (Sep 8, 4:00 PM)100% (Sep 8, 8:00 AM)30.12 "Hg (Sep 8, 8:00 AM)
Low52 °F (Sep 19, 5:00 AM)40% (Sep 17, 5:00 PM)29.88 "Hg (Sep 12, 6:00 AM)
Average62 °F85%29.99 "Hg
* Reported Midnight between Sep 4 and Sep 5 — Midnight between Sep 19 and Sep 20, Scheibbs, Weather by CustomWeather, © 2014

Note: Actual official high and low records may vary slightly from our data, if they occured in-between our weather recording intervals... More about our weather records

Advertising

Scheibbs weather history for previous 24 hours

 ConditionsComfort  
Time TempWeatherWind HumidityBarometerVisibility
12:00 AM
Sep 20
62 °FCool.2 mph92%30.01 "HgN/A
11:00 PM
Sep 19
62 °FCool.2 mph92%29.97 "HgN/A
10:00 PM62 °FCool.1 mph89%29.96 "HgN/A
9:00 PM64 °FMild.2 mph85%29.97 "HgN/A
8:00 PM65 °FMild.2 mph84%29.96 "HgN/A
7:00 PM67 °FMild.2 mph81%29.94 "HgN/A
6:00 PM69 °FMild.3 mph73%29.94 "HgN/A
5:00 PM71 °FMild.3 mph68%29.95 "HgN/A
4:00 PM71 °FFog.6 mph65%29.95 "HgN/A
3:00 PM71 °FMild.3 mph62%29.96 "HgN/A
2:00 PM71 °FMild.3 mph61%29.97 "HgN/A
1:00 PM70 °FMild.2 mph66%29.98 "HgN/A
12:00 PM66 °FMild.2 mph72%30.00 "HgN/A
11:00 AM64 °FMild.2 mph76%30.01 "HgN/A
10:00 AM60 °FCool.2 mph82%30.02 "HgN/A
9:00 AM57 °FCool.2 mph88%30.01 "HgN/A
8:00 AM54 °FPartly sunny.2 mph95%30.02 "HgN/A
7:00 AM52 °FCool.1 mph97%30.01 "HgN/A
6:00 AM52 °FCool.1 mph97%30.00 "HgN/A
5:00 AM52 °FCool.1 mph94%30.00 "HgN/A
2:00 AM56 °FCool.2 mph89%29.98 "HgN/A
Weather by CustomWeather, © 2014

See weather overviewHow to use our weather pages